SWA4132 KSAN-KSMF

Flight info

Callsign SWA4132
Flight time 1h 14m
Altitude 36000
Route PADRZ2 EHF NURAY SUUTR4
Aircraft B738/M-SADE2E3GIJ4RWZ/LB1D1

Departure

Time 2026-05-06 23:42
Airport San Diego International Airport (KSAN)

Arrival

Time 2026-05-07 00:56
Airport Sacramento International Airport (KSMF)
Time Latitude Longitude Altitude Speed Heading
2026-05-06 23:03 32.73372 -117.19780 37 ft 0 kts 257°
2026-05-06 23:31 32.73376 -117.19759 22 ft 3 kts 257°
2026-05-06 23:31 32.73379 -117.19730 21 ft 4 kts 287°
2026-05-06 23:31 32.73366 -117.19710 25 ft 4 kts 355°
2026-05-06 23:31 32.73342 -117.19716 20 ft 4 kts 20°
2026-05-06 23:32 32.73333 -117.19720 20 ft 3 kts 20°
2026-05-06 23:36 32.73347 -117.19714 22 ft 4 kts 20°
2026-05-06 23:37 32.73377 -117.19703 21 ft 6 kts 12°
2026-05-06 23:37 32.73420 -117.19659 25 ft 10 kts 82°
2026-05-06 23:37 32.73402 -117.19577 25 ft 11 kts 106°
2026-05-06 23:37 32.73376 -117.19470 23 ft 17 kts 106°
2026-05-06 23:38 32.73338 -117.19313 19 ft 22 kts 106°
2026-05-06 23:38 32.73297 -117.19143 21 ft 21 kts 106°
2026-05-06 23:38 32.73257 -117.18978 23 ft 20 kts 106°
2026-05-06 23:38 32.73218 -117.18820 23 ft 20 kts 106°
2026-05-06 23:39 32.73181 -117.18664 22 ft 19 kts 106°
2026-05-06 23:39 32.73141 -117.18499 18 ft 21 kts 106°
2026-05-06 23:39 32.73101 -117.18335 19 ft 21 kts 107°
2026-05-06 23:39 32.73063 -117.18175 14 ft 19 kts 106°
2026-05-06 23:40 32.73026 -117.18028 14 ft 18 kts 105°
2026-05-06 23:40 32.72992 -117.17884 12 ft 18 kts 105°
2026-05-06 23:40 32.72960 -117.17752 10 ft 12 kts 106°
2026-05-06 23:40 32.72955 -117.17665 12 ft 10 kts 77°
2026-05-06 23:41 32.72976 -117.17585 17 ft 10 kts 62°
2026-05-06 23:41 32.73025 -117.17592 15 ft 10 kts 293°
2026-05-06 23:41 32.73058 -117.17732 13 ft 41 kts 286°
2026-05-06 23:41 32.73207 -117.18348 18 ft 111 kts 286°
2026-05-06 23:42 32.73462 -117.19423 203 ft 149 kts 287°
2026-05-06 23:42 32.73759 -117.20652 958 ft 152 kts 288°
2026-05-06 23:42 32.74114 -117.21782 1824 ft 148 kts 303°
2026-05-06 23:42 32.74744 -117.22822 2188 ft 172 kts 305°
2026-05-06 23:43 32.75496 -117.24104 2592 ft 197 kts 305°
2026-05-06 23:43 32.76308 -117.25497 2976 ft 216 kts 305°
2026-05-06 23:43 32.77178 -117.27007 3603 ft 225 kts 305°
2026-05-06 23:43 32.78114 -117.28640 3908 ft 253 kts 305°
2026-05-06 23:44 32.79135 -117.30424 4475 ft 267 kts 305°
2026-05-06 23:44 32.80199 -117.32256 5245 ft 271 kts 307°
2026-05-06 23:44 32.81339 -117.34047 6193 ft 272 kts 310°
2026-05-06 23:44 32.82507 -117.35838 7101 ft 275 kts 310°
2026-05-06 23:45 32.83691 -117.37651 7949 ft 279 kts 310°
2026-05-06 23:45 32.84883 -117.39485 8827 ft 282 kts 310°
2026-05-06 23:45 32.86093 -117.41351 9716 ft 286 kts 310°
2026-05-06 23:45 32.87318 -117.43247 10440 ft 295 kts 310°
2026-05-06 23:46 32.88622 -117.45264 10654 ft 321 kts 310°
2026-05-06 23:46 32.90028 -117.47444 11043 ft 338 kts 310°
2026-05-06 23:46 32.91474 -117.49695 11737 ft 344 kts 310°
2026-05-06 23:46 32.92935 -117.51972 12516 ft 348 kts 310°
2026-05-06 23:47 32.94415 -117.54278 13266 ft 353 kts 310°
2026-05-06 23:47 32.95919 -117.56622 13971 ft 358 kts 310°
2026-05-06 23:47 32.97443 -117.59000 14661 ft 362 kts 310°
2026-05-06 23:47 32.98980 -117.61398 15381 ft 365 kts 311°
2026-05-06 23:48 33.00509 -117.63788 16091 ft 368 kts 311°
2026-05-06 23:48 33.02069 -117.66225 16747 ft 372 kts 311°
2026-05-06 23:48 33.03644 -117.68688 17416 ft 376 kts 311°
2026-05-06 23:48 33.05240 -117.71184 18118 ft 379 kts 311°
2026-05-06 23:49 33.06900 -117.73634 18734 ft 380 kts 319°
2026-05-06 23:49 33.08888 -117.75746 19346 ft 378 kts 325°
2026-05-06 23:49 33.10915 -117.77708 19956 ft 381 kts 325°
2026-05-06 23:49 33.12979 -117.79712 20548 ft 384 kts 324°
2026-05-06 23:50 33.15038 -117.81760 21124 ft 387 kts 324°
2026-05-06 23:50 33.19172 -117.85961 22278 ft 393 kts 323°
2026-05-06 23:50 33.21275 -117.88076 22816 ft 396 kts 324°
2026-05-06 23:51 33.23413 -117.90165 23346 ft 399 kts 325°
2026-05-06 23:51 33.25579 -117.92262 23856 ft 402 kts 325°
2026-05-06 23:51 33.27759 -117.94371 24290 ft 404 kts 325°
2026-05-06 23:51 33.29949 -117.96497 24741 ft 407 kts 325°
2026-05-06 23:52 33.32152 -117.98643 25174 ft 410 kts 325°
2026-05-06 23:52 33.34376 -118.00814 25595 ft 413 kts 325°
2026-05-06 23:52 33.36605 -118.02995 26011 ft 416 kts 325°
2026-05-06 23:52 33.38850 -118.05194 26404 ft 419 kts 325°
2026-05-06 23:53 33.41113 -118.07413 26794 ft 422 kts 325°
2026-05-06 23:53 33.43387 -118.09643 27189 ft 424 kts 325°
2026-05-06 23:53 33.45678 -118.11893 27578 ft 427 kts 326°
2026-05-06 23:53 33.47979 -118.14154 27984 ft 429 kts 326°
2026-05-06 23:54 33.50299 -118.16435 28362 ft 432 kts 326°
2026-05-06 23:54 33.52602 -118.18701 28713 ft 435 kts 326°
2026-05-06 23:54 33.54946 -118.21008 29079 ft 437 kts 326°
2026-05-06 23:54 33.57317 -118.23316 29420 ft 438 kts 328°
2026-05-06 23:55 33.59911 -118.25153 29759 ft 433 kts 340°
2026-05-06 23:55 33.62707 -118.26632 30120 ft 433 kts 341°
2026-05-06 23:55 33.65477 -118.28051 30405 ft 435 kts 341°
2026-05-06 23:55 33.68230 -118.29493 30672 ft 438 kts 341°
2026-05-06 23:56 33.71012 -118.30998 30982 ft 440 kts 340°
2026-05-06 23:56 33.73825 -118.32549 31328 ft 440 kts 340°
2026-05-06 23:56 33.76601 -118.34088 31752 ft 437 kts 341°
2026-05-06 23:56 33.79384 -118.35544 32252 ft 434 kts 342°
2026-05-06 23:57 33.81327 -118.36516 32629 ft 432 kts 342°
2026-05-06 23:57 33.84072 -118.37870 33056 ft 431 kts 342°
2026-05-06 23:57 33.86846 -118.39242 33372 ft 432 kts 342°
2026-05-06 23:57 33.89624 -118.40628 33699 ft 432 kts 342°
2026-05-06 23:58 33.92389 -118.42022 34080 ft 430 kts 342°
2026-05-06 23:58 33.95146 -118.43417 34424 ft 429 kts 342°
2026-05-06 23:58 33.97907 -118.44816 34695 ft 428 kts 342°
2026-05-06 23:58 34.00665 -118.46093 34936 ft 424 kts 350°
2026-05-06 23:59 34.03547 -118.46608 35257 ft 417 kts 358°
2026-05-06 23:59 34.06431 -118.46995 35603 ft 416 kts 357°
2026-05-06 23:59 34.09306 -118.47401 35845 ft 417 kts 357°
2026-05-06 23:59 34.12156 -118.47819 36031 ft 418 kts 357°
2026-05-07 00:00 34.17951 -118.48698 36023 ft 416 kts 356°
2026-05-07 00:00 34.23635 -118.49577 36027 ft 408 kts 356°
2026-05-07 00:01 34.29259 -118.50444 36074 ft 407 kts 356°
2026-05-07 00:01 34.34879 -118.51310 36066 ft 406 kts 357°
2026-05-07 00:02 34.40478 -118.52174 36055 ft 407 kts 357°
2026-05-07 00:02 34.46102 -118.53044 36045 ft 408 kts 356°
2026-05-07 00:03 34.51754 -118.53918 36058 ft 411 kts 356°
2026-05-07 00:03 34.57441 -118.54800 36060 ft 413 kts 356°
2026-05-07 00:04 34.63110 -118.55681 36065 ft 414 kts 356°
2026-05-07 00:04 34.68830 -118.56571 36066 ft 414 kts 356°
2026-05-07 00:05 34.74554 -118.57463 36071 ft 415 kts 356°
2026-05-07 00:05 34.80293 -118.58358 36078 ft 416 kts 356°
2026-05-07 00:06 34.86050 -118.59257 36109 ft 417 kts 356°
2026-05-07 00:06 34.91809 -118.60158 36129 ft 417 kts 356°
2026-05-07 00:07 34.97560 -118.61059 36152 ft 417 kts 356°
2026-05-07 00:07 35.00415 -118.61745 36130 ft 423 kts 344°
2026-05-07 00:07 35.03061 -118.63351 36151 ft 431 kts 329°
2026-05-07 00:08 35.07748 -118.67996 36126 ft 434 kts 324°
2026-05-07 00:08 35.12301 -118.72742 36133 ft 432 kts 324°
2026-05-07 00:09 35.16898 -118.77467 36103 ft 430 kts 324°
2026-05-07 00:09 35.21497 -118.82145 36100 ft 429 kts 324°
2026-05-07 00:10 35.26096 -118.86818 36094 ft 429 kts 324°
2026-05-07 00:10 35.30678 -118.91481 36088 ft 429 kts 324°
2026-05-07 00:11 35.35262 -118.96155 36075 ft 429 kts 324°
2026-05-07 00:11 35.39846 -119.00838 36089 ft 429 kts 324°
2026-05-07 00:12 35.44407 -119.05504 36080 ft 430 kts 324°
2026-05-07 00:12 35.49073 -119.10087 36071 ft 426 kts 334°
2026-05-07 00:13 35.54439 -119.12990 36084 ft 421 kts 340°
2026-05-07 00:13 35.59836 -119.15810 36078 ft 422 kts 340°
2026-05-07 00:14 35.65225 -119.18680 36085 ft 422 kts 340°
2026-05-07 00:14 35.70570 -119.21555 36082 ft 422 kts 340°
2026-05-07 00:15 35.75948 -119.24458 36082 ft 422 kts 340°
2026-05-07 00:15 35.81324 -119.27364 36076 ft 421 kts 339°
2026-05-07 00:16 35.86698 -119.30272 36097 ft 421 kts 339°
2026-05-07 00:16 35.92062 -119.33179 36098 ft 422 kts 339°
2026-05-07 00:17 35.97441 -119.36099 36101 ft 422 kts 339°
2026-05-07 00:17 36.02779 -119.39000 36100 ft 422 kts 339°
2026-05-07 00:18 36.08157 -119.41927 36100 ft 422 kts 339°
2026-05-07 00:18 36.13536 -119.44860 36099 ft 422 kts 339°
2026-05-07 00:19 36.18910 -119.47794 36094 ft 422 kts 339°
2026-05-07 00:19 36.24290 -119.50736 36095 ft 422 kts 339°
2026-05-07 00:20 36.29674 -119.53685 36092 ft 422 kts 339°
2026-05-07 00:20 36.35056 -119.56637 36089 ft 422 kts 339°
2026-05-07 00:21 36.40393 -119.59569 36095 ft 422 kts 339°
2026-05-07 00:21 36.45804 -119.62546 36096 ft 422 kts 338°
2026-05-07 00:22 36.51178 -119.65508 36099 ft 422 kts 338°
2026-05-07 00:22 36.56513 -119.68452 36106 ft 422 kts 338°
2026-05-07 00:23 36.61781 -119.71706 36105 ft 424 kts 331°
2026-05-07 00:23 36.66756 -119.75656 36097 ft 424 kts 329°
2026-05-07 00:24 36.71714 -119.79666 36100 ft 424 kts 330°
2026-05-07 00:24 36.76679 -119.83631 36090 ft 423 kts 330°
2026-05-07 00:25 36.81647 -119.87572 36102 ft 423 kts 330°
2026-05-07 00:25 36.86621 -119.91514 36102 ft 423 kts 330°
2026-05-07 00:26 36.91561 -119.95436 36107 ft 423 kts 330°
2026-05-07 00:26 36.94061 -119.97422 35653 ft 428 kts 330°
2026-05-07 00:26 36.96571 -119.99420 35110 ft 427 kts 330°
2026-05-07 00:27 36.99083 -120.01420 34534 ft 427 kts 329°
2026-05-07 00:27 37.01597 -120.03425 33911 ft 428 kts 329°
2026-05-07 00:27 37.04113 -120.05431 33217 ft 429 kts 329°
2026-05-07 00:27 37.06629 -120.07440 32546 ft 430 kts 329°
2026-05-07 00:28 37.09156 -120.09459 31877 ft 431 kts 329°
2026-05-07 00:28 37.11679 -120.11477 31306 ft 429 kts 329°
2026-05-07 00:28 37.14186 -120.13484 30842 ft 425 kts 329°
2026-05-07 00:28 37.16672 -120.15476 30375 ft 422 kts 329°
2026-05-07 00:29 37.19137 -120.17452 29848 ft 419 kts 329°
2026-05-07 00:29 37.21548 -120.19386 29336 ft 415 kts 329°
2026-05-07 00:30 37.28735 -120.25155 27866 ft 403 kts 329°
2026-05-07 00:30 37.31112 -120.27020 27374 ft 401 kts 329°
2026-05-07 00:30 37.33481 -120.28856 26876 ft 399 kts 330°
2026-05-07 00:30 37.35834 -120.30678 26389 ft 397 kts 330°
2026-05-07 00:31 37.38179 -120.32499 25917 ft 394 kts 329°
2026-05-07 00:31 37.40497 -120.34304 25457 ft 391 kts 329°
2026-05-07 00:31 37.42803 -120.36104 24988 ft 389 kts 329°
2026-05-07 00:31 37.45113 -120.37910 24508 ft 390 kts 329°
2026-05-07 00:32 37.47404 -120.39720 24197 ft 389 kts 328°
2026-05-07 00:32 37.49590 -120.41756 23542 ft 389 kts 323°
2026-05-07 00:32 37.51669 -120.43916 22957 ft 384 kts 322°
2026-05-07 00:32 37.53678 -120.46031 22468 ft 377 kts 322°
2026-05-07 00:33 37.55692 -120.48108 22004 ft 371 kts 323°
2026-05-07 00:33 37.57712 -120.50151 21559 ft 374 kts 323°
2026-05-07 00:33 37.59757 -120.52205 21106 ft 378 kts 323°
2026-05-07 00:33 37.61818 -120.54268 20724 ft 375 kts 323°
2026-05-07 00:34 37.63856 -120.56308 20347 ft 373 kts 323°
2026-05-07 00:34 37.65888 -120.58343 19987 ft 372 kts 323°
2026-05-07 00:34 37.67912 -120.60372 19619 ft 371 kts 323°
2026-05-07 00:34 37.69934 -120.62401 19256 ft 370 kts 324°
2026-05-07 00:35 37.71945 -120.64421 18905 ft 369 kts 324°
2026-05-07 00:35 37.73956 -120.66443 18527 ft 369 kts 324°
2026-05-07 00:35 37.75963 -120.68461 18122 ft 369 kts 323°
2026-05-07 00:35 37.77946 -120.70457 17668 ft 369 kts 323°
2026-05-07 00:36 37.79952 -120.72478 17278 ft 366 kts 323°
2026-05-07 00:36 37.81945 -120.74487 16911 ft 367 kts 323°
2026-05-07 00:36 37.83938 -120.76498 16525 ft 365 kts 323°
2026-05-07 00:36 37.85919 -120.78497 16180 ft 363 kts 323°
2026-05-07 00:37 37.87884 -120.80489 15813 ft 360 kts 323°
2026-05-07 00:37 37.89834 -120.82469 15455 ft 356 kts 323°
2026-05-07 00:37 37.91757 -120.84425 15107 ft 353 kts 323°
2026-05-07 00:37 37.93663 -120.86365 14776 ft 351 kts 323°
2026-05-07 00:38 37.95561 -120.88297 14423 ft 349 kts 323°
2026-05-07 00:38 37.97449 -120.90220 14085 ft 348 kts 323°
2026-05-07 00:38 37.99336 -120.92143 13706 ft 347 kts 323°
2026-05-07 00:38 38.01213 -120.94058 13339 ft 345 kts 323°
2026-05-07 00:39 38.03057 -120.95940 13001 ft 344 kts 323°
2026-05-07 00:39 38.04939 -120.97861 12625 ft 342 kts 323°
2026-05-07 00:39 38.06764 -120.99726 12293 ft 340 kts 323°
2026-05-07 00:39 38.08516 -121.01737 12064 ft 342 kts 314°
2026-05-07 00:40 38.10099 -121.04045 11754 ft 345 kts 311°
2026-05-07 00:40 38.11602 -121.06379 11392 ft 338 kts 310°
2026-05-07 00:40 38.13083 -121.08667 10960 ft 332 kts 311°
2026-05-07 00:40 38.14551 -121.10884 10615 ft 324 kts 312°
2026-05-07 00:41 38.15997 -121.13034 10285 ft 316 kts 312°
2026-05-07 00:41 38.17403 -121.15115 10149 ft 302 kts 312°
2026-05-07 00:41 38.18296 -121.16436 10119 ft 291 kts 313°
2026-05-07 00:41 38.19589 -121.18341 10040 ft 278 kts 313°
2026-05-07 00:42 38.20833 -121.20171 9824 ft 271 kts 313°
2026-05-07 00:42 38.22072 -121.21956 9483 ft 268 kts 315°
2026-05-07 00:42 38.23372 -121.23635 9146 ft 265 kts 317°
2026-05-07 00:42 38.24683 -121.25274 8764 ft 265 kts 317°
2026-05-07 00:43 38.25992 -121.26907 8689 ft 263 kts 317°
2026-05-07 00:43 38.27310 -121.28555 8588 ft 268 kts 317°
2026-05-07 00:43 38.28648 -121.30235 8479 ft 272 kts 317°
2026-05-07 00:43 38.29999 -121.31938 8375 ft 273 kts 317°
2026-05-07 00:44 38.31343 -121.33636 8267 ft 272 kts 317°
2026-05-07 00:44 38.32684 -121.35334 8161 ft 271 kts 317°
2026-05-07 00:44 38.34021 -121.37029 8050 ft 271 kts 317°
2026-05-07 00:44 38.35355 -121.38721 7950 ft 270 kts 317°
2026-05-07 00:45 38.36668 -121.40390 7855 ft 270 kts 317°
2026-05-07 00:45 38.37997 -121.42079 7746 ft 270 kts 317°
2026-05-07 00:45 38.39326 -121.43769 7634 ft 270 kts 317°
2026-05-07 00:45 38.40650 -121.45453 7538 ft 269 kts 317°
2026-05-07 00:46 38.41996 -121.47168 7439 ft 270 kts 317°
2026-05-07 00:46 38.43321 -121.48855 7330 ft 267 kts 317°
2026-05-07 00:46 38.44627 -121.50520 7226 ft 263 kts 317°
2026-05-07 00:46 38.45911 -121.52158 7131 ft 260 kts 317°
2026-05-07 00:47 38.47194 -121.53794 7019 ft 261 kts 317°
2026-05-07 00:47 38.48556 -121.55334 6846 ft 263 kts 322°
2026-05-07 00:47 38.50008 -121.56776 6658 ft 266 kts 323°
2026-05-07 00:47 38.51479 -121.58217 6455 ft 265 kts 323°
2026-05-07 00:48 38.52929 -121.59653 6239 ft 261 kts 323°
2026-05-07 00:48 38.54336 -121.61060 6041 ft 258 kts 323°
2026-05-07 00:48 38.55737 -121.62468 5843 ft 255 kts 323°
2026-05-07 00:48 38.57130 -121.63869 5636 ft 254 kts 323°
2026-05-07 00:49 38.58574 -121.65140 5428 ft 251 kts 337°
2026-05-07 00:49 38.60221 -121.65813 5257 ft 246 kts 345°
2026-05-07 00:49 38.61862 -121.66405 5065 ft 243 kts 344°
2026-05-07 00:49 38.63472 -121.67001 4879 ft 239 kts 343°
2026-05-07 00:50 38.65051 -121.67596 4691 ft 234 kts 343°
2026-05-07 00:50 38.66593 -121.68184 4506 ft 229 kts 343°
2026-05-07 00:50 38.68109 -121.68765 4327 ft 225 kts 342°
2026-05-07 00:50 38.69586 -121.69332 4199 ft 219 kts 342°
2026-05-07 00:51 38.71052 -121.69882 4021 ft 221 kts 346°
2026-05-07 00:51 38.72579 -121.69990 3780 ft 223 kts
2026-05-07 00:51 38.74125 -121.69915 3528 ft 220 kts 359°
2026-05-07 00:51 38.75630 -121.69864 3269 ft 213 kts 359°
2026-05-07 00:52 38.77090 -121.69709 3002 ft 209 kts 10°
2026-05-07 00:52 38.78413 -121.68990 2750 ft 206 kts 33°
2026-05-07 00:52 38.79404 -121.67699 2508 ft 202 kts 58°
2026-05-07 00:52 38.79925 -121.66071 2283 ft 196 kts 81°
2026-05-07 00:53 38.79966 -121.64362 2063 ft 190 kts 101°
2026-05-07 00:53 38.79594 -121.62785 1830 ft 181 kts 118°
2026-05-07 00:53 38.78876 -121.61478 1621 ft 179 kts 137°
2026-05-07 00:53 38.77904 -121.60553 1441 ft 168 kts 154°
2026-05-07 00:54 38.76858 -121.60097 1262 ft 152 kts 170°
2026-05-07 00:54 38.75825 -121.60002 1045 ft 147 kts 181°
2026-05-07 00:54 38.74819 -121.60029 844 ft 146 kts 181°
2026-05-07 00:54 38.73785 -121.60050 651 ft 150 kts 181°
2026-05-07 00:55 38.72734 -121.60069 449 ft 153 kts 181°
2026-05-07 00:55 38.71672 -121.60089 244 ft 152 kts 182°
2026-05-07 00:55 38.70602 -121.60110 49 ft 154 kts 182°
2026-05-07 00:55 38.69602 -121.60130 20 ft 122 kts 181°
2026-05-07 00:56 38.68974 -121.60140 26 ft 58 kts 181°
2026-05-07 00:56 38.68657 -121.60145 30 ft 38 kts 180°
2026-05-07 00:56 38.68485 -121.60147 24 ft 21 kts 180°
2026-05-07 00:56 38.68392 -121.60110 22 ft 11 kts 119°
2026-05-07 00:57 38.68385 -121.60018 22 ft 10 kts 90°
2026-05-07 00:57 38.68387 -121.59927 22 ft 10 kts 78°
2026-05-07 00:57 38.68440 -121.59884 22 ft 10 kts
2026-05-07 00:57 38.68518 -121.59883 22 ft 13 kts
2026-05-07 00:58 38.68639 -121.59881 23 ft 20 kts
2026-05-07 00:58 38.68783 -121.59879 22 ft 21 kts
2026-05-07 00:58 38.68929 -121.59877 22 ft 21 kts
2026-05-07 00:58 38.69070 -121.59874 22 ft 20 kts
2026-05-07 00:59 38.69339 -121.59870 22 ft 19 kts
2026-05-07 00:59 38.69444 -121.59857 22 ft 9 kts 33°
2026-05-07 00:59 38.69464 -121.59780 22 ft 10 kts 88°
2026-05-07 01:00 38.69463 -121.59678 22 ft 13 kts 91°
2026-05-07 01:00 38.69505 -121.59600 22 ft 12 kts
2026-05-07 01:00 38.69586 -121.59598 23 ft 11 kts
2026-05-07 01:00 38.69665 -121.59595 22 ft 11 kts 13°
2026-05-07 01:01 38.69697 -121.59516 22 ft 11 kts 92°
2026-05-07 01:01 38.69664 -121.59462 19 ft 7 kts 175°
2026-05-07 01:01 38.69640 -121.59462 22 ft 2 kts 180°
2026-05-07 01:01 38.69633 -121.59462 22 ft 0 kts 180°
2026-05-07 01:02 38.69631 -121.59462 22 ft 1 kts 180°
2026-05-07 01:02 38.69630 -121.59462 22 ft 0 kts 180°